www.pogodaiklimat.ru

Погода и климат >> Архив погоды >> Гана >> Навронго


ПОГОДА в Навронго

  • Прогноз погоды в Навронго
  • Монитор погоды в Навронго

АРХИВ ПОГОДЫ в Навронго

Время (UTC), дата Ветер
(напр.,м/с)
 
Видим.   Явления Облачность Т
(С)
Тd
(С)
f
(%)
Тe
(С)
Тes
(С)
Комфортность P
(гПа)
Po
(гПа)
Тmin
(С)
Tmax
(С)
R
(мм)
R24
(мм)
S
(см)
12 19.03 СЗ 2 6000 м мгла 6/0
[Ac trans Ci fib]
+38.4 +18.8 32 +43 +59 опасность
перегрева
1008.2 986.0
15 19.03 ЮЗ 2 6000 м мгла 6/0
[Ac trans Ci fib]
+39.5 +16.5 26 +42 +50 опасность
перегрева
1004.8 982.7
18 19.03 СВ 2 6000 м мгла 5/0
[Ci fib]
+37.6 +17.1 30 +40 +40 очень
душно
1003.2 981.1 +39.7
06 20.03 ЮЗ 2 6000 м мгла 9/0
[Ac trans]
+29.0 +17.1 49 +33 +33 очень
душно
1006.8 983.9 +25.0
09 20.03 ЮЗ 4 6000 м мгла 6/0
[Ac trans Cs]
+33.2 +20.1 46 +39 +45 очень
душно
1010.7 988.1
12 20.03 ЮЗ 3 6000 м мгла 6/0
[Cs]
+38.0 +18.8 33 +42 +58 опасность
перегрева
1009.0 986.8
15 20.03 ЮЗ 2 6000 м мгла 6/0
[Cs]
+40.5 +19.7 30 +45 +55 опасность
перегрева
1004.3 982.3
18 20.03 ЮЗ 1 6000 м мгла 5/0
[Ci fib]
+39.0 +17.8 29 +42 +42 опасность
перегрева
1004.6 982.5 +40.5
21 20.03 ЮЗ 1 6000 м мгла 4/0
[Ci fib]
+34.6 +19.4 41 +40 +40 очень
душно
1005.8 983.4
06 21.03 ЮЗ 1 6000 м мгла 4/0
[Ci fib]
+29.1 +20.6 60 +36 +36 очень
душно
1007.2 984.3 +27.0
09 21.03 СЗ 1 8000 м мгла ясно +34.0 +18.8 41 +39 +52 опасность
солнечного
удара
1009.8 987.2
12 21.03 СВ 1 6000 м мгла ясно +41.1 +14.4 21 +42 +69 опасность
перегрева
1009.9 987.8
15 21.03 СВ 2 8000 м мгла ясно +42.5 +14.4 19 +43 +54 опасность
перегрева
1004.1 982.3
18 21.03 СВ 1 6000 м мгла ясно +40.0 +13.0 20 +40 +40 очень
душно
1002.1 980.1 +42.7
21 21.03 СВ 1 6000 м мгла ясно +34.0 +12.7 28 +34 +34 очень
жарко
1005.5 983.0
06 22.03 СВ 1 6000 м мгла 8/0
[Ac trans]
+26.5 +11.8 40 +28 +28 жарко 1008.5 985.4 +25.1
09 22.03 СВ 1 6000 м мгла 4/0
[Ci fib]
+33.0 +12.1 28 +33 +44 жарко 1010.3 987.7
12 22.03 СВ 2 6000 м мгла 8/0
[Ac trans]
+40.0 +8.3 15 +38 +50 очень
жарко
1009.2 987.1
15 22.03 СЗ 2 6000 м мгла 6/0
[Cs]
+42.0 +10.8 16 +41 +52 опасность
перегрева
1005.8 983.9
18 22.03 СВ 1 6000 м мгла 4/0
[Ci fib]
+39.5 +10.3 17 +38 +38 очень
жарко
1004.0 982.0 +42.0
21 22.03 СВ 1 6000 м мгла 6/0
[Ac trans Cs]
+34.1 +12.4 27 +34 +34 очень
жарко
1006.7 984.2
00 23.03 З 1 6000 м мгла 5/0
[Ac trans]
+30.0 +11.1 31 +30 +30 жарко 1008.2 985.4
06 23.03 СВ 1 6000 м мгла 9/0
[Ac trans]
+27.0 +10.2 35 +28 +28 жарко 1008.1 985.1 +24.6
12 23.03 СВ 3 6000 м мгла 6/0
[Ac trans]
+40.0 +9.5 16 +38 +51 опасность
солнечного
удара
1009.8 987.7
15 23.03 СВ 2 7000 м мгла 9/0
[Ac trans]
+40.0 +8.5 15 +38 +39 очень
жарко
1005.7 983.7
18 23.03 СВ 1 6000 м мгла 9/0
[Ac trans]
+38.2 +11.3 20 +37 +37 очень
жарко
1005.8 983.6 +41.2
21 23.03 СВ 1 6000 м мгла 4/0
[Ac trans]
+34.5 +9.4 22 +33 +33 жарко 1007.6 985.1
00 24.03 штиль 0 15 км мгла 8/0
[Ac trans]
+31.0 +10.1 27 +31 +31 жарко 1008.7 986.0
06 24.03 СВ 1 6000 м мгла 5/0
[Ac trans Ci fib]
+26.0 +8.6 33 +26 +26 жарко 1006.9 983.8 +24.0
09 24.03 СВ 3 6000 м мгла 6/0
[Ac trans]
+34.0 +9.7 23 +33 +39 жарко 1011.1 988.5
21 24.03 СВ 1 6000 м мгла 3/0
[Ac trans]
+33.9 +13.4 29 +35 +35 очень
жарко
1007.5 985.0
00 25.03 СВ 1 6000 м мгла 8/0
[Ac cuf]
+31.1 +13.4 34 +32 +32 жарко 1008.6 985.9
06 25.03 ЮВ 1 6000 м мгла 5/0
[Ac trans Ci fib]
+30.4 +19.1 51 +36 +36 очень
душно
1008.7 985.9 +28.0
15 25.03 ЮЗ 1 6000 м мгла 3/3 540 м
[Cu hum]
+40.4 +18.9 29 +45 +55 опасность
перегрева
1005.6 983.6
18 25.03 ЮЗ 1 6000 м мгла 4/0
[Ac trans]
+39.0 +18.8 31 +43 +43 опасность
перегрева
1004.8 982.7 +40.8
21 25.03 ЮВ 4 12 км 8/0
[Cs]
+32.5 +20.9 50 +40 +40 очень
душно
1010.0 987.3 140
00 26.03 ЮЗ 1 6000 м мгла 3/0
[Ac trans]
+32.5 +20.0 48 +39 +39 очень
душно
1009.1 986.5
06 26.03 ЮЗ 3 6000 м мгла 3/0
[Ac trans]
+29.5 +20.4 58 +36 +36 очень
душно
1009.6 986.7 +25.2
09 26.03 ЮЗ 2 6000 м мгла 9/0
[Ac trans]
+32.5 +22.5 56 +42 +47 опасность
перегрева
1011.2 988.5

 

Местоположение метеостанции Навронго (Гана): широта 10.90 долгота -1.10 высота над уровнем моря 203 м.

В архиве по умолчанию представлена погода в Навронго за последнюю неделю. Архивные данные за месяц целиком и за предыдущие месяцы, начиная с января 2011 года, Вы можете получить, выбрав интересующий диапазон дат из раскрывающегося списка и нажав кнопку "Ввод!".


*Определитесь, кто Вы:
робот инопланетянин человек

Внимание! Время в таблицах - всемирное. Для получения местного времени необходимо прибавить поправку, которая равна 1 ч.

Смотрите также архив погоды в соседних городах и на ближайших метеорологических станциях:

Погода в По (Буркина-Фасо) (28 км)
Погода в Тамале (Гана) (158 км)
Погода в Дапаоне (Того) (158 км)
Погода в Уагадугу (Буркина-Фасо) (168 км)
Погода в Ва (Гана) (180 км)
Погода в Манго (Того) (181 км)
Погода в Йенди (Гана) (200 км)
Погода в Фада-Нгурме (Буркина-Фасо) (204 км)
Погода в Боромо (Буркина-Фасо) (221 км)
Погода в Гауа (Буркина-Фасо) (236 км)

Пояснения к столбцам:

Ветер - указаны скорость ветра в м/с - средняя за 10 мин, порывы в срок и между сроками (в фигурных скобках) и направление, откуда дует ветер: С - северный, СВ - северо-восточный, В - восточный, ЮВ - юго-восточный, Ю - южный, ЮЗ - юго-западный, З - западный, СЗ - северо-западный.
Видимость - горизонтальная дальность видимости в метрах или километрах. При видимости от 1 до 10 км при отсутствии осадков обычно наблюдается дымка, при ухудшении видимости до 1 км и менее - туман. В сухую погоду видимость может ухудшаться дымом, пылью или мглою.
Явления - указаны атмосферные явления, наблюдавшиеся в срок или в последний час перед сроком; фигурными скобками обозначены явления, наблюдавшиеся между сроками (за 1-3 часа до срока); квадратными скобками обозначены град или гололедные отложения с указанием их диаметра в мм.
Облачность - указаны через наклонную черту общая и нижняя облачность в баллах и высота нижней границы облаков в метрах; квадратными скобками обозначены формы облаков: Ci - перистые, Cs - перисто-слоистые, Cc - перисто-кучевые, Ac - высококучевые, As - высокослоистые, Sc - слоисто-кучевые, Ns - слоисто-дождевые, Cu - кучевые, Cb - кучево-дождевые. Подробнее классификацию облаков см. в Атласе облаков (PDF).
T - Температура воздуха - температура, измеренная на высоте 2 м над землей.
Td - Температура точки росы - температура, при понижении до которой содержащийся в воздухе водяной пар достигнет насыщения.
f - Относительная влажность воздуха - влажноcть воздуха, измеренная на высоте 2 м над землей.
Te - Эффективная температура - температура, которую ощущает одетый по сезону человек в тени. Характеристика душности погоды. При расчете учитывается влияние влажности воздуха и скорости ветра на теплоощущения человека.
Tes - Эффективная температура на солнце - температура, которую ощущает человек, с поправкой на солнечный нагрев. Характеристика знойности погоды. Зависит от высоты солнца над горизонтом, облачности и скорости ветра. Ночью, в пасмурную погоду, а также при ветре 12 м/с и более поправка равна нулю.
P - Атмосферное давление - приведенное к уровню моря атмосферное давление.
Po - Атмосферное давление - измеренное на уровне метеостанции атмосферное давление.
Tmin - Минимальная температура - минимум температуры воздуха на высоте 2 м над землей.
Tmax - Максимальная температура - максимум температуры воздуха на высоте 2 м над землей.
R - Количество осадков - Количество выпавших осадков за период времени, мм. При наведении курсора мыши на число - период времени, за который выпало указанное количество осадков.
R24 - Количество осадков - Количество выпавших осадков за 24 часа, мм.
S - Снежный покров - Высота снежного покрова, см. При наведении курсора мыши на число - состояние снежного покрова и степень покрытия местности в баллах.